THOR ABLESTAR DEB, 210

Orbit data source: Space-Track

THOR ABLESTAR DEB, 210 is space debris in LEO originally from a launch on Thu, 29 Jun 1961 UTC launched from the Air Force Eastern Test Range (AFETR). Debris objects in space refer to the collection of defunct objects orbiting the Earth. Examples of debris include non-operational satellites, rocket bodies, and fragments generated from explosions, collisions, or faulty payload assembly.

Loading next visibility...
Identifier
210, 1961-015BE
Orbit
LEO
Country
Flag of USUS
Related business
Manufacturer
Unknown
Mission
Spacecraft
Bus & Motor
Unknown
Mass
Unknown
Launch date (UTC)
1961-06-29 (65 years ago)
Launch vehicle
Unknown
Launch site
Air Force Eastern Test Range (AFETR)
Object type
Payload
Rocket body
Debris
Shape & HBR
Unknown shape, 0.2 m
Radar Cross Section
Medium (>0.1 m² and <1 m²)

Expand to show TLE details & history
Last TLE update: 17 hours ago

TLE from 17 hours ago
0 THOR ABLESTAR DEB
1 00210U 61015BE  26140.77396627  .00000413  00000-0  40092-3 0  9992
2 00210  66.4570  73.2112 0051331 323.8964  35.8649 13.89056039261599
Epoch: 2026-05-20T18:34Z
TLE epoch observation values (Epoch: 2026-05-20T18:34:30.685Z)
Latitude
0.00001°
Longitude
-83.84535°
Altitude
903.643 km
Speed
7.416 km/s
True Right ascension
04h 52m 50s
True Declination
0° 00' 00"
Sunlit
Object was in daylight at epoch
Visualization orbit readout
Latitude
Unknown
Longitude
Unknown
Altitude
Unknown
Speed
Unknown
Apparent Right ascension
Unknown
Apparent Declination
Unknown
Sunlit
N/A
Visualization observer readout
Local Sidereal Time
20:17:08
Azimuth
Unknown
Elevation
Unknown
Doppler factor
Unknown
Orbital elements
Apogee altitude
967.89 km
Perigee altitude
892.86 km
Semi-major axis
7,308.512 km
Eccentricity
0.00513
Inclination
66.457°
RAAN
73.2112°
Arg. of periapsis
323.8964°
True anomaly
36.21132°
Mean anomaly
35.8649°
Eccentric anomaly
36.03793°
Mean motion
3.47376 °/min
Orbital period
103.63 mins
BSTAR
0.00040092
Loading maneuver chart data...
Computing Atmospheric mass density...
Loading historical data...
Loading historical data...
Loading historical data...
Loading historical data...
Loading historical data...
Loading historical data...
Loading historical data...

Documentation

Showing up to 5 results
|